Location: Arlington Heights
(34.0422°N, 118.3189°W)
Time: 17:12:34
(UTC+00:00)

Daily predictions for brighter satellites

Satellite Brightness Start Highest point End
(mag) Time Altitude Azimuth Time Altitude Azimuth Time Altitude Azimuth
X-37B 0.8 12:01:19 10° WNW 12:04:01 37° SW 12:06:43 10° SSE
Sich 1 3.5 12:01:54 10° S 12:06:12 63° E 12:10:28 10° NNE
FALCON 9 DEB 3.0 12:06:06 10° NW 12:09:20 57° SW 12:12:31 10° SSE
Cosmos 2227 Rocket 2.3 12:04:53 10° SSW 12:10:31 68° WNW 12:16:11 10° NNE
Cosmos 1484 Rocket 2.8 12:06:55 10° N 12:10:51 75° WNW 12:14:44 10° SSW
CZ-2C R/B 3.4 12:10:58 10° NNW 12:14:50 27° WNW 12:18:39 10° SW
CZ-4C R/B 4.0 12:10:46 10° SSE 12:15:01 67° ENE 12:19:23 10° N
Cosmos 2346 Rocket 4.5 12:09:00 10° S 12:15:01 75° W 12:21:07 10° N
DELTA 2 DEB (DPAF) 4.3 12:10:47 10° S 12:15:04 52° W 12:19:22 10° NNW
COSMOS 2428 3.5 12:12:28 10° NW 12:17:20 30° WSW 12:22:12 10° SSW
